When you browse on this site, cookies collect data to enhance your experience and personalize the content and advertising you see.
Visit our Privacy Policy to learn more. By continuing to use the site, you agree to this use of cookies and data.
  • In Lithuania
  • List of Countries
  • For 7 days
  • Water Temperature
  • Satellite Maps
  • Weather Map
  • Weather Widgets
  • user-avatar
    Login

    Hourly Weather Bregenz

    Today, 20 May, Monday

    Time Temperature Precipitation Wind Pressure Humidity
    00:00 +6°C° 0.5 mm 1 mps 637 mmHg 97%
    01:00 +6°C° 0.5 mm 1 mps 637 mmHg 97%
    02:00 +6°C° 1.9 mm 1 mps 637 mmHg 97%
    03:00 +6°C° 1.9 mm 1 mps 637 mmHg 98%
    04:00 +6°C° 1.9 mm 1 mps 637 mmHg 98%
    05:00 +6°C° 2.6 mm 1 mps 637 mmHg 98%
    06:00 +6°C° 2.6 mm 1 mps 637 mmHg 98%
    07:00 +6°C° 2.6 mm 1 mps 637 mmHg 98%
    08:00 +5°C° 2.4 mm 2 mps 637 mmHg 97%
    09:00 +5°C° 2.4 mm 2 mps 637 mmHg 97%
    10:00 +5°C° 2.4 mm 2 mps 637 mmHg 97%
    11:00 +5°C° 2.5 mm 2 mps 637 mmHg 97%
    12:00 +5°C° 2.5 mm 2 mps 638 mmHg 96%
    13:00 +5°C° 2.5 mm 2 mps 638 mmHg 96%
    14:00 +4°C° 3.2 mm 3 mps 638 mmHg 96%
    15:00 +4°C° 3.2 mm 3 mps 638 mmHg 96%
    16:00 +4°C° 3.2 mm 3 mps 638 mmHg 96%
    17:00 +4°C° 2.1 mm 3 mps 638 mmHg 96%
    18:00 +4°C° 2.1 mm 3 mps 639 mmHg 96%
    19:00 +4°C° 2.1 mm 3 mps 639 mmHg 97%
    20:00 +4°C° 1.9 mm 3 mps 639 mmHg 97%
    21:00 +4°C° 1.9 mm 3 mps 640 mmHg 97%
    22:00 +4°C° 1.9 mm 3 mps 640 mmHg 97%
    23:00 +4°C° 0.9 mm 3 mps 640 mmHg 97%

    Tomorrow, 21 May, Tuesday

    Time Temperature Precipitation Wind Pressure Humidity
    00:00 +4°C° 0.9 mm 3 mps 640 mmHg 97%
    01:00 +4°C° 0.9 mm 3 mps 640 mmHg 97%
    02:00 +3°C° 0.6 mm 3 mps 640 mmHg 97%
    03:00 +3°C° 0.6 mm 3 mps 640 mmHg 97%
    04:00 +3°C° 0.6 mm 3 mps 640 mmHg 97%
    05:00 +3°C° 0.4 mm 3 mps 641 mmHg 96%
    06:00 +3°C° 0.4 mm 3 mps 641 mmHg 96%
    07:00 +4°C° 0.4 mm 3 mps 641 mmHg 95%
    08:00 +5°C° 0.2 mm 3 mps 642 mmHg 89%
    09:00 +7°C° 0.2 mm 3 mps 643 mmHg 84%
    10:00 +8°C° 0.2 mm 3 mps 643 mmHg 78%
    11:00 +8°C° 0.2 mm 3 mps 643 mmHg 77%
    12:00 +9°C° 0.2 mm 3 mps 644 mmHg 75%
    13:00 +9°C° 0.2 mm 3 mps 644 mmHg 74%
    14:00 +8°C° 0.6 mm 2 mps 644 mmHg 79%
    15:00 +8°C° 0.6 mm 2 mps 644 mmHg 85%
    16:00 +8°C° 0.6 mm 1 mps 644 mmHg 90%
    17:00 +8°C° 0.4 mm 1 mps 644 mmHg 92%
    18:00 +8°C° 0.4 mm 1 mps 644 mmHg 93%
    19:00 +7°C° 0.4 mm 0 mps 644 mmHg 95%
    20:00 +7°C° 0.3 mm 1 mps 645 mmHg 95%
    21:00 +7°C° 0.3 mm 1 mps 645 mmHg 95%
    22:00 +6°C° 0.3 mm 1 mps 645 mmHg 95%
    23:00 +6°C° 0.2 mm 1 mps 645 mmHg 95%

    Day after tomorrow, 22 May, Wednesday

    Time Temperature Precipitation Wind Pressure Humidity
    00:00 +6°C° 0.2 mm 1 mps 646 mmHg 95%
    01:00 +6°C° 0.2 mm 1 mps 646 mmHg 96%
    02:00 +6°C° 0.1 mm 1 mps 646 mmHg 96%
    03:00 +6°C° 0.1 mm 1 mps 646 mmHg 96%
    04:00 +6°C° 0.1 mm 1 mps 646 mmHg 96%
    05:00 +6°C° 0.1 mm 1 mps 646 mmHg 95%
    06:00 +7°C° 0.1 mm 1 mps 646 mmHg 95%
    07:00 +7°C° 0.1 mm 1 mps 646 mmHg 94%
    08:00 +8°C° 0.2 mm 1 mps 646 mmHg 92%
    09:00 +9°C° 0.2 mm 1 mps 647 mmHg 90%
    10:00 +9°C° 0.2 mm 1 mps 647 mmHg 87%
    11:00 +10°C° 0.5 mm 1 mps 647 mmHg 86%
    12:00 +10°C° 0.5 mm 1 mps 647 mmHg 85%
    13:00 +11°C° 0.5 mm 1 mps 647 mmHg 83%
    14:00 +11°C° 0.5 mm 1 mps 647 mmHg 84%
    15:00 +11°C° 0.5 mm 1 mps 647 mmHg 84%
    16:00 +11°C° 0.5 mm 1 mps 647 mmHg 85%
    17:00 +10°C° 0.4 mm 1 mps 647 mmHg 88%
    18:00 +10°C° 0.4 mm 1 mps 647 mmHg 91%
    19:00 +9°C° 0.4 mm 1 mps 647 mmHg 94%
    20:00 +8°C° 0.1 mm 1 mps 647 mmHg 95%
    21:00 +7°C° 0.1 mm 1 mps 648 mmHg 96%
    22:00 +6°C° 0.1 mm 1 mps 648 mmHg 97%
    23:00 +6°C° 0 mm 1 mps 647 mmHg 97%

    23 May, Thursday

    Time Temperature Precipitation Wind Pressure Humidity
    00:00 +5°C° 0 mm 1 mps 647 mmHg 96%
    01:00 +5°C° 0 mm 1 mps 647 mmHg 96%
    02:00 +4°C° 0 mm 1 mps 647 mmHg 96%
    03:00 +4°C° 0 mm 1 mps 647 mmHg 96%
    04:00 +3°C° 0 mm 1 mps 646 mmHg 96%
    05:00 +4°C° 0 mm 0 mps 647 mmHg 94%
    06:00 +5°C° 0 mm 0 mps 647 mmHg 91%
    07:00 +6°C° 0 mm 0 mps 647 mmHg 89%
    08:00 +9°C° 0 mm 1 mps 648 mmHg 83%
    09:00 +10°C° 0 mm 1 mps 648 mmHg 77%
    10:00 +10°C° 0 mm 2 mps 649 mmHg 71%
    11:00 +12°C° 0 mm 2 mps 648 mmHg 70%
    12:00 +12°C° 0 mm 2 mps 648 mmHg 69%
    13:00 +12°C° 0 mm 2 mps 648 mmHg 68%
    14:00 +13°C° 0 mm 2 mps 648 mmHg 68%
    15:00 +13°C° 0 mm 2 mps 648 mmHg 67%
    16:00 +13°C° 0 mm 2 mps 648 mmHg 67%
    17:00 +12°C° 0 mm 2 mps 648 mmHg 73%
    18:00 +10°C° 0 mm 2 mps 648 mmHg 79%
    19:00 +10°C° 0 mm 1 mps 647 mmHg 85%
    20:00 +9°C° 0 mm 1 mps 647 mmHg 88%
    21:00 +8°C° 0 mm 1 mps 647 mmHg 91%
    22:00 +7°C° 0 mm 1 mps 647 mmHg 94%
    23:00 +6°C° 0 mm 1 mps 647 mmHg 94%

    24 May, Friday

    Time Temperature Precipitation Wind Pressure Humidity
    00:00 +6°C° 0 mm 1 mps 647 mmHg 94%
    01:00 +5°C° 0 mm 1 mps 646 mmHg 94%
    02:00 +5°C° 0 mm 1 mps 646 mmHg 94%
    03:00 +5°C° 0 mm 1 mps 646 mmHg 94%
    04:00 +4°C° 0 mm 1 mps 646 mmHg 93%
    05:00 +6°C° 0 mm 1 mps 646 mmHg 89%
    06:00 +7°C° 0 mm 1 mps 646 mmHg 85%
    07:00 +8°C° 0 mm 0 mps 646 mmHg 80%
    08:00 +11°C° 0 mm 1 mps 647 mmHg 73%
    09:00 +13°C° 0 mm 1 mps 647 mmHg 65%
    10:00 +14°C° 0 mm 1 mps 647 mmHg 57%
    11:00 +15°C° 0 mm 1 mps 647 mmHg 54%
    12:00 +16°C° 0 mm 2 mps 647 mmHg 52%
    13:00 +17°C° 0 mm 2 mps 647 mmHg 49%
    14:00 +16°C° 0.2 mm 2 mps 646 mmHg 55%
    15:00 +15°C° 0.2 mm 2 mps 646 mmHg 60%
    16:00 +15°C° 0.2 mm 2 mps 645 mmHg 65%
    17:00 +13°C° 0.6 mm 2 mps 644 mmHg 73%
    18:00 +12°C° 0.6 mm 2 mps 644 mmHg 81%
    19:00 +9°C° 0.6 mm 2 mps 643 mmHg 89%
    20:00 +9°C° 0.2 mm 1 mps 643 mmHg 90%
    21:00 +8°C° 0.2 mm 1 mps 643 mmHg 92%
    22:00 +7°C° 0.2 mm 1 mps 643 mmHg 93%
    23:00 +6°C° 0.7 mm 2 mps 642 mmHg 95%

    25 May, Saturday

    Time Temperature Precipitation Wind Pressure Humidity
    00:00 +6°C° 0.7 mm 2 mps 642 mmHg 96%
    01:00 +6°C° 0.7 mm 2 mps 642 mmHg 98%
    02:00 +5°C° 2.7 mm 2 mps 642 mmHg 98%
    03:00 +5°C° 2.7 mm 2 mps 642 mmHg 98%
    04:00 +4°C° 2.7 mm 2 mps 642 mmHg 98%
    05:00 +4°C° 1 mm 2 mps 642 mmHg 97%
    06:00 +4°C° 1 mm 2 mps 643 mmHg 96%
    07:00 +5°C° 1 mm 2 mps 643 mmHg 95%
    08:00 +6°C° 0.4 mm 1 mps 643 mmHg 93%
    09:00 +7°C° 0.4 mm 1 mps 644 mmHg 91%
    10:00 +7°C° 0.4 mm 1 mps 644 mmHg 90%
    11:00 +8°C° 0.3 mm 1 mps 644 mmHg 85%
    12:00 +8°C° 0.3 mm 1 mps 644 mmHg 81%
    13:00 +9°C° 0.3 mm 1 mps 645 mmHg 77%
    14:00 +9°C° 0.3 mm 1 mps 645 mmHg 77%
    15:00 +9°C° 0.3 mm 1 mps 645 mmHg 77%
    16:00 +8°C° 0.3 mm 2 mps 645 mmHg 76%
    17:00 +9°C° 0.1 mm 1 mps 645 mmHg 80%
    18:00 +8°C° 0.1 mm 1 mps 645 mmHg 84%
    19:00 +8°C° 0.1 mm 1 mps 645 mmHg 87%
    20:00 +6°C° 0 mm 0 mps 646 mmHg 90%
    21:00 +5°C° 0 mm 0 mps 646 mmHg 92%
    22:00 +3°C° 0 mm 0 mps 646 mmHg 95%
    23:00 +3°C° 0 mm 0 mps 646 mmHg 95%
    Show more